FW0655 Weather Reports


Display with metric or nautical units.
time (UTC)temp
F
wind
direction
speed
MPH
gust
MPH
rain 1hr
in
rain 24hr
in
rain mn
in
humidity
%
barometer
mb
20260903103018 65 159 1.0 2.0 0.00 0.96 0.12 94 1012.7
20260903101515 65 159 1.0 3.0 0.00 0.96 0.12 94 1012.8
20260903100016 65 157 0.0 1.0 0.00 0.96 0.12 94 1013.0
20260903094533 65 157 0.0 2.0 0.00 0.96 0.12 94 1013.1
20260903093013 65 157 0.0 0.0 0.00 0.96 0.12 94 1013.2
20260903091513 65 157 0.0 1.0 0.00 0.96 0.12 94 1013.1
20260903090012 65 157 0.0 2.0 0.00 0.96 0.12 94 1013.1
20260903084513 65 157 1.0 3.0 0.00 0.96 0.12 94 1013.2
20260903083013 65 189 0.0 2.0 0.00 0.96 0.12 94 1012.6
20260903081510 65 189 0.0 2.0 0.00 0.96 0.12 94 1013.1
20260903080010 65 189 0.0 3.0 0.00 0.96 0.12 94 1013.2
20260903074509 65 189 0.0 2.0 0.00 0.96 0.12 94 1013.3
20260903073011 65 189 0.0 3.0 0.00 0.96 0.12 94 1013.4
20260903071507 66 189 1.0 2.0 0.01 0.96 0.12 94 1013.0
20260903070006 66 189 0.0 3.0 0.01 0.96 0.12 94 1012.8
20260903064507 66 160 2.0 7.0 0.01 0.96 0.12 93 1013.5
20260903063006 66 345 3.0 5.0 0.01 0.96 0.12 93 1013.1
20260903061504 66 320 2.0 4.0 0.00 0.95 0.11 93 1013.1
20260903060003 66 215 0.0 2.0 0.00 0.95 0.11 93 1013.6
20260903054508 66 215 0.0 2.0 0.00 0.95 0.11 93 1013.5
20260903053113 66 216 1.0 3.0 0.02 0.95 0.11 93 1013.4
20260903051601 66 178 2.0 4.0 0.05 0.95 0.11 93 1013.7
20260903044604 66 205 5.0 11.0 0.16 0.95 0.11 93 1013.6
20260903043054 67 161 2.0 11.0 0.16 0.93 0.09 92 1014.4
20260903041550 67 188 3.0 6.0 0.16 0.90 0.06 92 1015.4
20260903040046 68 317 1.0 4.0 0.14 0.84 0.00 93 1016.3
20260903034545 68 225 0.0 2.0 0.14 0.79 0.79 92 1015.1
20260903033047 68 224 2.0 8.0 0.17 0.77 0.77 92 1013.9
20260903031544 68 208 5.0 10.0 0.19 0.74 0.74 92 1014.3
20260903030145 69 198 5.0 8.0 0.30 0.70 0.70 92 1014.3
20260903024546 69 217 7.0 11.0 0.32 0.65 0.65 92 1015.4
20260903023043 70 203 3.0 11.0 0.28 0.60 0.60 92 1016.3
20260903021553 70 219 5.0 12.0 0.24 0.55 0.55 92 1015.9
20260903020041 70 283 4.0 8.0 0.09 0.39 0.39 91 1016.9
20260903014544 70 202 3.0 10.0 0.03 0.33 0.33 90 1014.5
20260903013041 71 213 1.0 5.0 0.02 0.32 0.32 90 1014.7
20260903011543 71 19 2.0 3.0 0.01 0.31 0.31 90 1015.1
20260903010039 71 19 1.0 2.0 0.00 0.30 0.30 89 1014.5
20260903004550 71 19 1.0 3.0 0.00 0.30 0.30 89 1014.0
20260903003038 71 137 2.0 8.0 0.00 0.30 0.30 88 1013.6
20260903001537 71 222 2.0 5.0 0.00 0.30 0.30 88 1014.0
20260903000036 72 231 3.0 7.0 0.00 0.30 0.30 88 1014.0
20260902234536 72 194 1.0 3.0 0.00 0.30 0.30 88 1014.4
20260902233038 72 196 0.0 4.0 0.00 0.30 0.30 87 1014.1
20260902231545 72 156 0.0 3.0 0.00 0.30 0.30 87 1014.2
20260902230034 73 128 1.0 4.0 0.00 0.30 0.30 87 1013.9
20260902224533 73 193 2.0 7.0 0.00 0.30 0.30 87 1013.8
20260902223033 73 153 2.0 4.0 0.00 0.30 0.30 86 1013.7
20260902221530 73 173 3.0 11.0 0.00 0.30 0.30 86 1013.8
20260902220031 73 231 1.0 10.0 0.00 0.30 0.30 86 1014.0
20260902214528 73 154 3.0 10.0 0.00 0.30 0.30 86 1014.4
20260902213027 73 228 1.0 10.0 0.00 0.30 0.30 86 1014.5
20260902211527 73 237 3.0 8.0 0.00 0.30 0.30 86 1014.6
20260902210033 74 189 2.0 6.0 0.00 0.30 0.30 86 1014.7
20260902204537 74 189 3.0 10.0 0.00 0.30 0.30 85 1014.8
20260902203025 74 238 6.0 13.0 0.00 0.30 0.30 86 1014.2
20260902201529 74 194 4.0 11.0 0.00 0.30 0.30 86 1014.1
20260902200021 74 213 4.0 10.0 0.00 0.30 0.30 86 1014.7
20260902194519 74 205 7.0 16.0 0.00 0.30 0.30 87 1014.9
20260902193017 74 144 3.0 8.0 0.00 0.30 0.30 88 1015.1
20260902191518 74 226 6.0 10.0 0.00 0.30 0.30 89 1015.3
20260902190007 73 206 4.0 11.0 0.00 0.30 0.30 91 1015.2
20260902184504 72 188 5.0 10.0 0.00 0.30 0.30 92 1015.2
20260902183003 72 30 1.0 4.0 0.00 0.30 0.30 93 1015.1
20260902181502 71 30 2.0 4.0 0.00 0.30 0.30 93 1015.2
20260902180004 71 30 2.0 6.0 0.00 0.30 0.30 93 1015.4
20260902174608 72 30 2.0 8.0 0.00 0.30 0.30 93 1015.9
20260902173000 71 32 3.0 6.0 0.00 0.30 0.30 94 1016.1
20260902171609 71 32 3.0 6.0 0.00 0.30 0.30 94 1016.4
20260902164602 71 36 2.0 8.0 0.00 0.30 0.30 93 1016.4
20260902163059 72 26 2.0 5.0 0.01 0.30 0.30 94 1016.5
20260902161601 72 10 1.0 5.0 0.02 0.30 0.30 94 1016.0
20260902160152 71 340 2.0 4.0 0.04 0.30 0.30 94 1016.0
20260902154609 71 214 0.0 5.0 0.05 0.30 0.30 94 1016.1
20260902153048 71 132 1.0 2.0 0.04 0.28 0.28 94 1016.2
20260902151551 71 132 0.0 2.0 0.21 0.28 0.28 94 1016.4
20260902150046 71 132 0.0 3.0 0.26 0.26 0.26 94 1016.4
20260902144550 70 13 1.0 4.0 0.25 0.28 0.25 94 1016.4
20260902143046 71 155 2.0 5.0 0.25 0.28 0.25 94 1016.0
20260902141544 71 257 1.0 3.0 0.07 0.11 0.07 94 1016.3
20260902140044 71 189 0.0 3.0 0.00 0.04 0.00 94 1016.3
20260902134543 71 188 1.0 2.0 0.00 0.27 0.00 94 1016.7
20260902133050 71 189 1.0 4.0 0.00 0.27 0.00 94 1016.5
20260902131544 70 60 2.0 5.0 0.00 0.27 0.00 94 1016.0
20260902130038 70 56 0.0 2.0 0.00 0.27 0.00 94 1016.2
20260902124538 69 56 0.0 2.0 0.00 0.84 0.00 94 1016.2
20260902123036 69 56 0.0 1.0 0.00 0.84 0.00 94 1016.1
20260902121533 68 56 1.0 4.0 0.00 0.84 0.00 94 1015.8
20260902120033 68 56 0.0 4.0 0.00 0.84 0.00 94 1015.7
20260902114533 68 56 0.0 1.0 0.00 0.86 0.00 94 1015.5
20260902113037 67 56 0.0 2.0 0.00 0.86 0.00 94 1015.6
20260902111531 66 56 0.0 2.0 0.00 0.86 0.00 94 1015.3
20260902110031 66 56 0.0 0.0 0.00 0.86 0.00 94 1015.3
20260902104531 66 56 0.0 2.0 0.00 0.86 0.00 93 1015.4
20260902103042 66 56 0.0 0.0 0.00 0.86 0.00 94 1015.7